Time,TemperatureF,DewpointF,PressureIn,WindDirection,WindDirectionDegrees,WindSpeedMPH,WindSpeedGustMPH,Humidity,HourlyPrecipIn,Conditions,Clouds,dailyrainin,SolarRadiationWatts/m^2,SoftwareType,DateUTC
2013-07-26 00:32:00,62.0,51.0,-100.00,East,89,0.0,2.0,67,-99.99,,,0.00,0.000000,,2013-07-26 07:32:00,
2013-07-26 00:43:00,62.0,51.0,-100.00,East,89,0.0,2.0,67,-99.99,,,0.00,0.000000,,2013-07-26 07:43:00,
2013-07-26 00:53:00,62.0,51.0,-100.00,East,89,0.0,2.0,67,-99.99,,,0.00,0.000000,,2013-07-26 07:53:00,
2013-07-26 01:02:00,62.0,51.0,-100.00,East,89,0.0,2.0,67,-99.99,,,0.00,0.000000,,2013-07-26 08:02:00,
2013-07-26 01:32:00,60.0,50.0,-100.00,East,88,0.0,2.0,69,-99.99,,,0.00,0.000000,,2013-07-26 08:32:00,
2013-07-26 01:44:00,60.0,50.0,-100.00,East,88,0.0,2.0,69,-99.99,,,0.00,0.000000,,2013-07-26 08:44:00,
2013-07-26 01:52:00,60.0,50.0,-100.00,East,88,0.0,2.0,69,-99.99,,,0.00,0.000000,,2013-07-26 08:52:00,
2013-07-26 02:02:00,60.0,50.0,-100.00,East,88,0.0,2.0,69,-99.99,,,0.00,0.000000,,2013-07-26 09:02:00,
2013-07-26 02:32:00,57.0,49.0,-100.00,SW,236,0.0,2.0,74,-99.99,,,0.00,0.000000,,2013-07-26 09:32:00,
2013-07-26 02:43:00,57.0,49.0,-100.00,SW,236,0.0,2.0,74,-99.99,,,0.00,0.000000,,2013-07-26 09:43:00,
2013-07-26 02:52:00,57.0,49.0,-100.00,SW,236,0.0,2.0,74,-99.99,,,0.00,0.000000,,2013-07-26 09:52:00,
2013-07-26 03:02:00,57.0,49.0,-100.00,SW,236,0.0,2.0,74,-99.99,,,0.00,0.000000,,2013-07-26 10:02:00,
2013-07-26 03:33:00,56.0,49.0,-100.00,SE,129,0.0,2.0,77,0.00,,,0.00,0.000000,,2013-07-26 10:33:00,
2013-07-26 03:42:00,56.0,49.0,-100.00,SE,129,0.0,2.0,77,0.00,,,0.00,0.000000,,2013-07-26 10:42:00,
2013-07-26 03:52:00,56.0,49.0,-100.00,SE,129,0.0,2.0,77,0.00,,,0.00,0.000000,,2013-07-26 10:52:00,
2013-07-26 04:02:00,56.0,49.0,-100.00,SE,129,0.0,2.0,77,0.00,,,0.00,0.000000,,2013-07-26 11:02:00,
2013-07-26 04:32:00,55.0,49.0,-100.00,East,87,0.0,4.0,81,0.00,,,0.00,0.000000,,2013-07-26 11:32:00,
2013-07-26 04:43:00,55.0,49.0,-100.00,East,87,0.0,4.0,81,0.00,,,0.00,0.000000,,2013-07-26 11:43:00,
2013-07-26 04:52:00,55.0,49.0,-100.00,East,87,0.0,4.0,81,0.00,,,0.00,0.000000,,2013-07-26 11:52:00,
2013-07-26 05:02:00,55.0,49.0,-100.00,East,87,0.0,4.0,81,0.00,,,0.00,0.000000,,2013-07-26 12:02:00,
2013-07-26 05:33:00,53.0,49.0,-100.00,ENE,74,1.0,3.0,86,0.00,,,0.00,0.000000,,2013-07-26 12:33:00,
2013-07-26 05:43:00,53.0,49.0,-100.00,ENE,74,1.0,3.0,86,0.00,,,0.00,0.000000,,2013-07-26 12:43:00,
2013-07-26 05:53:00,53.0,49.0,-100.00,ENE,74,1.0,3.0,86,0.00,,,0.00,0.000000,,2013-07-26 12:53:00,
2013-07-26 06:02:00,53.0,49.0,-100.00,ENE,74,1.0,3.0,86,0.00,,,0.00,0.000000,,2013-07-26 13:02:00,
2013-07-26 06:32:00,52.0,49.0,-100.00,ENE,64,0.0,5.0,90,0.00,,,0.00,0.000000,,2013-07-26 13:32:00,
2013-07-26 06:43:00,52.0,49.0,-100.00,ENE,64,0.0,5.0,90,0.00,,,0.00,0.000000,,2013-07-26 13:43:00,
2013-07-26 06:53:00,52.0,49.0,-100.00,ENE,64,0.0,5.0,90,0.00,,,0.00,0.000000,,2013-07-26 13:53:00,
2013-07-26 07:02:00,52.0,49.0,-100.00,ENE,64,0.0,5.0,90,0.00,,,0.00,0.000000,,2013-07-26 14:02:00,
2013-07-26 07:33:00,52.0,49.0,-100.00,ENE,60,1.0,4.0,89,0.00,,,0.00,11.000000,,2013-07-26 14:33:00,
2013-07-26 07:43:00,52.0,49.0,-100.00,ENE,60,1.0,4.0,89,0.00,,,0.00,11.000000,,2013-07-26 14:43:00,
2013-07-26 07:53:00,52.0,49.0,-100.00,ENE,60,1.0,4.0,89,0.00,,,0.00,11.000000,,2013-07-26 14:53:00,
2013-07-26 08:02:00,52.0,49.0,-100.00,ENE,60,1.0,4.0,89,0.00,,,0.00,11.000000,,2013-07-26 15:02:00,
2013-07-26 08:33:00,58.0,51.0,-100.00,East,91,4.0,8.0,77,0.00,,,0.00,171.000000,,2013-07-26 15:33:00,
2013-07-26 08:43:00,58.0,51.0,-100.00,East,91,4.0,8.0,77,0.00,,,0.00,171.000000,,2013-07-26 15:43:00,
2013-07-26 08:53:00,58.0,51.0,-100.00,East,91,4.0,8.0,77,0.00,,,0.00,171.000000,,2013-07-26 15:53:00,
2013-07-26 09:02:00,58.0,51.0,-100.00,East,91,4.0,8.0,77,0.00,,,0.00,171.000000,,2013-07-26 16:02:00,
2013-07-26 09:32:00,64.0,52.0,-100.00,East,91,3.0,7.0,65,0.00,,,0.00,397.000000,,2013-07-26 16:32:00,
2013-07-26 09:43:00,64.0,52.0,-100.00,East,91,3.0,7.0,65,0.00,,,0.00,397.000000,,2013-07-26 16:43:00,
2013-07-26 09:54:00,64.0,52.0,-100.00,East,91,3.0,7.0,65,0.00,,,0.00,397.000000,,2013-07-26 16:54:00,
2013-07-26 10:02:00,64.0,52.0,-100.00,East,91,3.0,7.0,65,0.00,,,0.00,397.000000,,2013-07-26 17:02:00,
2013-07-26 10:33:00,70.0,53.0,-100.00,East,93,5.0,11.0,54,0.00,,,0.00,590.000000,,2013-07-26 17:33:00,
2013-07-26 10:43:00,70.0,53.0,-100.00,East,93,5.0,11.0,54,0.00,,,0.00,590.000000,,2013-07-26 17:43:00,
2013-07-26 10:53:00,70.0,53.0,-100.00,East,93,5.0,11.0,54,0.00,,,0.00,590.000000,,2013-07-26 17:53:00,
2013-07-26 11:02:00,70.0,53.0,-100.00,East,93,5.0,11.0,54,0.00,,,0.00,590.000000,,2013-07-26 18:02:00,
2013-07-26 19:32:00,86.0,53.0,-100.00,East,79,4.0,15.0,32,-99.99,,,-99.99,279.000000,,2013-07-27 02:32:00,
2013-07-26 19:43:00,86.0,53.0,-100.00,East,79,4.0,15.0,32,-99.99,,,-99.99,279.000000,,2013-07-27 02:43:00,
2013-07-26 20:33:00,74.0,52.0,-100.00,ENE,74,4.0,8.0,46,-99.99,,,0.00,39.000000,,2013-07-27 03:33:00,
2013-07-26 20:44:00,74.0,52.0,-100.00,ENE,74,4.0,8.0,46,-99.99,,,0.00,39.000000,,2013-07-27 03:44:00,
2013-07-26 20:52:00,74.0,52.0,-100.00,ENE,74,4.0,8.0,46,-99.99,,,0.00,39.000000,,2013-07-27 03:52:00,
2013-07-26 21:32:00,68.0,53.0,-100.00,East,88,4.0,9.0,59,-99.99,,,0.00,2.000000,,2013-07-27 04:32:00,
2013-07-26 21:43:00,68.0,53.0,-100.00,East,88,4.0,9.0,59,-99.99,,,0.00,2.000000,,2013-07-27 04:43:00,
2013-07-26 21:53:00,68.0,53.0,-100.00,East,88,4.0,9.0,59,-99.99,,,0.00,2.000000,,2013-07-27 04:53:00,
2013-07-26 22:01:00,68.0,53.0,-100.00,East,88,4.0,9.0,59,-99.99,,,0.00,2.000000,,2013-07-27 05:01:00,
2013-07-26 22:33:00,64.0,52.0,-100.00,ENE,75,2.0,8.0,66,0.00,,,0.00,0.000000,,2013-07-27 05:33:00,
2013-07-26 22:43:00,64.0,52.0,-100.00,ENE,75,2.0,8.0,66,0.00,,,0.00,0.000000,,2013-07-27 05:43:00,
2013-07-26 22:52:00,64.0,52.0,-100.00,ENE,75,2.0,8.0,66,0.00,,,0.00,0.000000,,2013-07-27 05:52:00,
2013-07-26 23:02:00,64.0,52.0,-100.00,ENE,75,2.0,8.0,66,0.00,,,0.00,0.000000,,2013-07-27 06:02:00,
2013-07-26 23:33:00,62.0,53.0,-100.00,East,80,3.0,5.0,72,0.00,,,0.00,0.000000,,2013-07-27 06:33:00,
2013-07-26 23:43:00,62.0,53.0,-100.00,East,80,3.0,5.0,72,0.00,,,0.00,0.000000,,2013-07-27 06:43:00,
2013-07-26 23:52:00,62.0,53.0,-100.00,East,80,3.0,5.0,72,0.00,,,0.00,0.000000,,2013-07-27 06:52:00,